User: anonymous   Login
Location: Newark
(34.6000°S, 58.3833°W)
Time: 08:24:28
(UTC+00:00)
Language:

ISS - Orbit

View from above orbital plane
View from above orbital plane
View from above satellite
View from above satellite

Ground track
Ground track

The orbit data is extracted from the following two-line orbital elements,

1 25544U 98067A   19319.62710787  .00016717  00000-0  10270-3 0  9031
2 25544  51.6406 330.4403 0006481 284.6927  75.3504 15.49981180 38740
Epoch (UTC): 15 November 2019 15:03:02
Eccentricity: 0.0006481
inclination: 51.6406°
perigee height: 412 km
apogee height: 421 km
right ascension of ascending node: 330.4403°
argument of perigee: 284.6927°
revolutions per day: 15.49981180
mean anomaly at epoch: 75.3504°
orbit number at epoch: 3874

The dashed part of the orbit path shows where the satellite is in the earth's shadow,  

DLR